Time,TemperatureF,DewpointF,PressureIn,WindDirection,WindDirectionDegrees,WindSpeedMPH,WindSpeedGustMPH,Humidity,HourlyPrecipIn,Conditions,Clouds,dailyrainin,SolarRadiationWatts/m^2,SoftwareType,DateUTC
2013-02-21 00:01:00,43.9,27.9,29.94,North,2,0.0,0.0,53,0.00,,---,0.00,0.00,VWS V14.00,2013-02-21 08:01:00,
2013-02-21 00:06:00,43.8,28.2,29.94,North,2,0.0,0.0,54,0.00,,---,0.00,0.00,VWS V14.00,2013-02-21 08:06:00,
2013-02-21 00:12:00,43.6,28.1,29.94,North,2,0.0,0.0,54,0.00,,---,0.00,0.00,VWS V14.00,2013-02-21 08:12:00,
2013-02-21 00:17:00,43.6,28.1,29.95,North,2,0.0,0.0,54,0.00,,---,0.00,0.00,VWS V14.00,2013-02-21 08:17:00,
2013-02-21 00:21:00,43.6,29.0,29.95,North,2,0.0,0.0,56,0.00,,---,0.00,0.00,VWS V14.00,2013-02-21 08:21:00,
2013-02-21 00:26:00,43.6,29.0,29.95,North,2,0.0,0.0,56,0.00,,---,0.00,0.00,VWS V14.00,2013-02-21 08:26:00,
2013-02-21 00:32:00,43.3,29.1,29.95,North,2,0.0,0.0,57,0.00,,---,0.00,0.00,VWS V14.00,2013-02-21 08:32:00,
2013-02-21 00:37:00,43.2,29.4,29.95,North,2,0.0,0.0,58,0.00,,---,0.00,0.00,VWS V14.00,2013-02-21 08:37:00,
2013-02-21 00:42:00,43.2,29.9,29.95,North,2,0.0,0.0,59,0.00,,---,0.00,0.00,VWS V14.00,2013-02-21 08:42:00,
2013-02-21 00:47:00,43.2,30.3,29.95,North,2,0.0,0.0,60,0.00,,---,0.00,0.00,VWS V14.00,2013-02-21 08:47:00,
2013-02-21 00:52:00,43.1,30.2,29.95,North,2,0.0,0.0,60,0.00,,---,0.00,0.00,VWS V14.00,2013-02-21 08:52:00,
2013-02-21 00:57:00,43.1,30.2,29.95,North,2,0.0,0.0,60,0.00,,---,0.00,0.00,VWS V14.00,2013-02-21 08:57:00,
2013-02-21 01:02:00,43.1,30.6,29.95,North,2,0.0,0.0,61,0.00,,---,0.00,0.00,VWS V14.00,2013-02-21 09:02:00,
2013-02-21 01:07:00,42.9,30.4,29.95,North,2,0.0,0.0,61,0.00,,---,0.00,0.00,VWS V14.00,2013-02-21 09:07:00,
2013-02-21 01:12:00,42.9,30.4,29.95,North,2,0.0,0.0,61,0.00,,---,0.00,0.00,VWS V14.00,2013-02-21 09:12:00,
2013-02-21 01:17:00,42.9,30.4,29.95,North,2,0.0,0.0,61,0.00,,---,0.00,0.00,VWS V14.00,2013-02-21 09:17:00,
2013-02-21 01:22:00,43.1,30.6,29.95,North,2,0.0,0.0,61,0.00,,---,0.00,0.00,VWS V14.00,2013-02-21 09:22:00,
2013-02-21 01:27:00,42.9,30.8,29.95,North,2,0.0,0.0,62,0.00,,---,0.00,0.00,VWS V14.00,2013-02-21 09:27:00,
2013-02-21 01:32:00,42.8,30.7,29.95,North,2,0.0,0.0,62,0.00,,---,0.00,0.00,VWS V14.00,2013-02-21 09:32:00,
2013-02-21 01:37:00,42.6,30.9,29.95,North,2,0.0,0.0,63,0.00,,---,0.00,0.00,VWS V14.00,2013-02-21 09:37:00,
2013-02-21 01:42:00,42.5,30.8,29.95,North,2,0.0,0.0,63,0.00,,---,0.00,0.00,VWS V14.00,2013-02-21 09:42:00,
2013-02-21 01:47:00,42.5,30.8,29.95,North,2,0.0,0.0,63,0.00,,---,0.00,0.00,VWS V14.00,2013-02-21 09:47:00,
2013-02-21 01:52:00,42.5,31.2,29.95,North,2,0.0,0.0,64,0.00,,---,0.00,0.00,VWS V14.00,2013-02-21 09:52:00,
2013-02-21 01:57:00,42.3,31.0,29.95,North,2,0.0,0.0,64,0.00,,---,0.00,0.00,VWS V14.00,2013-02-21 09:57:00,
2013-02-21 02:02:00,42.5,30.8,29.94,North,1,0.0,0.0,63,0.00,,---,0.00,0.00,VWS V14.00,2013-02-21 10:02:00,
2013-02-21 02:07:00,42.6,30.5,29.94,North,360,0.0,0.0,62,0.00,,---,0.00,0.00,VWS V14.00,2013-02-21 10:07:00,
2013-02-21 02:12:00,42.5,30.4,29.94,North,360,0.0,0.0,62,0.00,,---,0.00,0.00,VWS V14.00,2013-02-21 10:12:00,
2013-02-21 02:17:00,42.5,30.8,29.94,North,360,0.0,0.0,63,0.00,,---,0.00,0.00,VWS V14.00,2013-02-21 10:17:00,
2013-02-21 02:22:00,42.3,30.6,29.94,North,360,0.0,0.0,63,0.00,,---,0.00,0.00,VWS V14.00,2013-02-21 10:22:00,
2013-02-21 02:27:00,42.3,30.6,29.94,North,360,0.0,0.0,63,0.00,,---,0.00,0.00,VWS V14.00,2013-02-21 10:27:00,
2013-02-21 02:32:00,42.3,30.6,29.95,North,360,0.0,0.0,63,0.00,,---,0.00,0.00,VWS V14.00,2013-02-21 10:32:00,
2013-02-21 02:37:00,42.2,30.9,29.95,North,360,0.0,0.0,64,0.00,,---,0.00,0.00,VWS V14.00,2013-02-21 10:37:00,
2013-02-21 02:42:00,42.2,30.9,29.95,North,360,0.0,0.0,64,0.00,,---,0.00,0.00,VWS V14.00,2013-02-21 10:42:00,
2013-02-21 02:47:00,42.2,30.9,29.94,North,360,0.0,0.0,64,0.00,,---,0.00,0.00,VWS V14.00,2013-02-21 10:47:00,
2013-02-21 02:52:00,42.2,30.9,29.94,North,360,0.0,0.0,64,0.00,,---,0.00,0.00,VWS V14.00,2013-02-21 10:52:00,
2013-02-21 02:57:00,42.2,30.9,29.94,North,360,0.0,0.0,64,0.00,,---,0.00,0.00,VWS V14.00,2013-02-21 10:57:00,
2013-02-21 03:02:00,42.3,31.0,29.94,North,360,0.0,0.0,64,0.00,,---,0.00,0.00,VWS V14.00,2013-02-21 11:02:00,
2013-02-21 03:07:00,42.3,31.0,29.94,North,360,0.0,0.0,64,0.00,,---,0.00,0.00,VWS V14.00,2013-02-21 11:07:00,
2013-02-21 03:12:00,42.2,31.3,29.94,North,360,0.0,0.0,65,0.00,,---,0.00,0.00,VWS V14.00,2013-02-21 11:12:00,
2013-02-21 03:17:00,42.2,31.3,29.94,North,360,0.0,0.0,65,0.00,,---,0.00,0.00,VWS V14.00,2013-02-21 11:17:00,
2013-02-21 03:22:00,42.1,31.2,29.94,North,360,0.0,0.0,65,0.00,,---,0.00,0.00,VWS V14.00,2013-02-21 11:22:00,
2013-02-21 03:27:00,42.1,31.2,29.94,North,360,0.0,0.0,65,0.00,,---,0.00,0.00,VWS V14.00,2013-02-21 11:27:00,
2013-02-21 03:32:00,42.2,31.3,29.94,North,360,0.0,0.0,65,0.00,,---,0.00,0.00,VWS V14.00,2013-02-21 11:32:00,
2013-02-21 03:37:00,42.2,31.3,29.94,North,360,0.0,0.0,65,0.00,,---,0.00,0.00,VWS V14.00,2013-02-21 11:37:00,
2013-02-21 03:42:00,42.3,31.4,29.94,North,360,0.0,0.0,65,0.00,,---,0.00,0.00,VWS V14.00,2013-02-21 11:42:00,
2013-02-21 03:47:00,42.3,31.4,29.95,North,360,0.0,0.0,65,0.00,,---,0.00,0.00,VWS V14.00,2013-02-21 11:47:00,
2013-02-21 03:52:00,42.5,31.6,29.95,North,360,0.0,0.0,65,0.00,,---,0.00,0.00,VWS V14.00,2013-02-21 11:52:00,
2013-02-21 03:57:00,42.6,31.7,29.95,North,360,0.0,0.0,65,0.00,,---,0.00,0.00,VWS V14.00,2013-02-21 11:57:00,
2013-02-21 04:02:00,42.8,31.9,29.95,North,360,0.0,0.0,65,0.00,,---,0.00,0.00,VWS V14.00,2013-02-21 12:02:00,
2013-02-21 04:07:00,42.8,31.9,29.95,North,360,0.0,0.0,65,0.00,,---,0.00,0.00,VWS V14.00,2013-02-21 12:07:00,
2013-02-21 04:12:00,42.8,31.9,29.95,North,360,0.0,0.0,65,0.00,,---,0.00,0.00,VWS V14.00,2013-02-21 12:12:00,
2013-02-21 04:17:00,42.8,31.9,29.95,North,360,0.0,0.0,65,0.00,,---,0.00,0.00,VWS V14.00,2013-02-21 12:17:00,
2013-02-21 04:22:00,42.6,31.7,29.95,North,360,0.0,0.0,65,0.00,,---,0.00,0.00,VWS V14.00,2013-02-21 12:22:00,
2013-02-21 04:27:00,42.5,31.6,29.95,North,360,0.0,0.0,65,0.00,,---,0.00,0.00,VWS V14.00,2013-02-21 12:27:00,
2013-02-21 04:32:00,42.3,31.8,29.95,North,360,0.0,0.0,66,0.00,,---,0.00,0.00,VWS V14.00,2013-02-21 12:32:00,
2013-02-21 04:37:00,42.3,31.8,29.95,North,360,0.0,0.0,66,0.00,,---,0.00,0.00,VWS V14.00,2013-02-21 12:37:00,
2013-02-21 04:42:00,42.2,31.7,29.95,North,360,0.0,0.0,66,0.00,,---,0.00,0.00,VWS V14.00,2013-02-21 12:42:00,
2013-02-21 04:47:00,42.2,31.7,29.95,North,360,0.0,0.0,66,0.00,,---,0.00,0.00,VWS V14.00,2013-02-21 12:47:00,
2013-02-21 04:52:00,42.1,31.6,29.95,North,360,0.0,0.0,66,0.00,,---,0.00,0.00,VWS V14.00,2013-02-21 12:52:00,
2013-02-21 04:57:00,42.1,31.6,29.95,North,360,0.0,0.0,66,0.00,,---,0.00,0.00,VWS V14.00,2013-02-21 12:57:00,
2013-02-21 05:03:00,42.1,31.6,29.95,North,360,0.0,0.0,66,0.00,,---,0.00,0.00,VWS V14.00,2013-02-21 13:03:00,
2013-02-21 05:08:00,42.1,31.6,29.95,North,360,0.0,0.0,66,0.00,,---,0.00,0.00,VWS V14.00,2013-02-21 13:08:00,
2013-02-21 05:13:00,42.1,31.6,29.95,North,360,0.0,0.0,66,0.00,,---,0.00,0.00,VWS V14.00,2013-02-21 13:13:00,
2013-02-21 05:18:00,42.1,32.0,29.95,North,360,0.0,0.0,67,0.00,,---,0.00,0.00,VWS V14.00,2013-02-21 13:18:00,
2013-02-21 05:23:00,42.2,32.0,29.95,North,360,0.0,0.0,67,0.00,,---,0.00,0.00,VWS V14.00,2013-02-21 13:23:00,
2013-02-21 05:28:00,42.5,32.7,29.95,North,360,0.0,0.0,68,0.00,,---,0.00,0.00,VWS V14.00,2013-02-21 13:28:00,
2013-02-21 05:33:00,42.8,33.0,29.96,North,360,0.0,0.0,68,0.00,,---,0.00,0.00,VWS V14.00,2013-02-21 13:33:00,
2013-02-21 05:38:00,42.8,33.3,29.96,North,360,0.0,0.0,69,0.00,,---,0.00,0.00,VWS V14.00,2013-02-21 13:38:00,
2013-02-21 05:43:00,42.9,33.4,29.96,North,360,0.0,0.0,69,0.00,,---,0.00,0.00,VWS V14.00,2013-02-21 13:43:00,
2013-02-21 05:48:00,43.1,34.0,29.96,North,360,0.0,0.0,70,0.00,,---,0.00,0.00,VWS V14.00,2013-02-21 13:48:00,
2013-02-21 05:53:00,43.1,34.0,29.96,North,360,0.0,0.0,70,0.00,,---,0.00,0.00,VWS V14.00,2013-02-21 13:53:00,
2013-02-21 05:58:00,42.9,33.8,29.96,North,360,0.0,0.0,70,0.00,,---,0.00,0.00,VWS V14.00,2013-02-21 13:58:00,
2013-02-21 06:03:00,42.8,33.7,29.96,North,360,0.0,0.0,70,0.00,,---,0.00,0.00,VWS V14.00,2013-02-21 14:03:00,
2013-02-21 06:08:00,42.6,33.9,29.96,North,360,0.0,0.0,71,0.00,,---,0.00,0.00,VWS V14.00,2013-02-21 14:08:00,
2013-02-21 06:13:00,42.6,34.2,29.96,North,360,0.0,0.0,72,0.00,,---,0.00,0.00,VWS V14.00,2013-02-21 14:13:00,
2013-02-21 06:18:00,42.6,34.2,29.96,North,360,0.0,0.0,72,0.00,,---,0.00,0.00,VWS V14.00,2013-02-21 14:18:00,
2013-02-21 06:23:00,42.8,34.8,29.96,North,360,0.0,0.0,73,0.00,,---,0.00,0.00,VWS V14.00,2013-02-21 14:23:00,
2013-02-21 06:28:00,42.9,34.8,29.96,North,360,0.0,0.0,73,0.00,,---,0.00,0.00,VWS V14.00,2013-02-21 14:28:00,
2013-02-21 06:33:00,42.9,34.8,29.96,North,360,0.0,0.0,73,0.00,,---,0.00,5.00,VWS V14.00,2013-02-21 14:33:00,
2013-02-21 06:38:00,42.9,35.2,29.96,North,1,0.0,0.0,74,0.00,,---,0.00,7.00,VWS V14.00,2013-02-21 14:38:00,
2013-02-21 06:43:00,43.1,35.4,29.96,North,1,0.0,0.0,74,0.00,,---,0.00,11.00,VWS V14.00,2013-02-21 14:43:00,
2013-02-21 06:48:00,43.1,35.7,29.96,North,1,0.0,0.0,75,0.00,,---,0.00,14.00,VWS V14.00,2013-02-21 14:48:00,
2013-02-21 06:53:00,43.3,36.3,29.96,North,1,0.0,0.0,76,0.00,,---,0.00,16.00,VWS V14.00,2013-02-21 14:53:00,
2013-02-21 06:58:00,43.6,36.5,29.96,North,6,0.0,0.0,76,0.00,,---,0.00,19.00,VWS V14.00,2013-02-21 14:58:00,
2013-02-21 07:03:00,43.8,37.1,29.97,North,6,0.0,0.0,77,0.00,,---,0.00,23.00,VWS V14.00,2013-02-21 15:03:00,
2013-02-21 07:08:00,44.3,37.6,29.97,ENE,58,0.0,2.0,77,0.00,,---,0.00,25.00,VWS V14.00,2013-02-21 15:08:00,
2013-02-21 07:13:00,44.8,38.0,29.97,ENE,58,0.0,0.0,77,0.00,,---,0.00,28.00,VWS V14.00,2013-02-21 15:13:00,
2013-02-21 07:18:00,45.2,38.8,29.98,ENE,70,0.0,0.0,78,0.00,,---,0.00,30.00,VWS V14.00,2013-02-21 15:18:00,
2013-02-21 07:23:00,45.8,39.3,29.98,NNE,27,0.0,0.0,78,0.00,,---,0.00,33.00,VWS V14.00,2013-02-21 15:23:00,
2013-02-21 07:28:00,46.2,39.7,29.98,NNE,27,0.0,0.0,78,0.00,,---,0.00,77.00,VWS V14.00,2013-02-21 15:28:00,
2013-02-21 07:33:00,46.7,40.2,29.98,NNE,27,0.0,1.0,78,0.00,,---,0.00,40.00,VWS V14.00,2013-02-21 15:33:00,
2013-02-21 07:38:00,47.3,40.5,29.98,East,81,4.0,4.0,77,0.00,,---,0.00,42.00,VWS V14.00,2013-02-21 15:38:00,
2013-02-21 07:43:00,47.9,41.0,29.98,ENE,75,3.0,5.0,77,0.00,,---,0.00,44.00,VWS V14.00,2013-02-21 15:43:00,
2013-02-21 07:48:00,48.3,41.4,29.98,NE,51,1.0,5.0,77,0.00,,---,0.00,47.00,VWS V14.00,2013-02-21 15:48:00,
2013-02-21 07:53:00,48.8,41.9,29.98,East,80,9.0,9.0,77,0.00,,---,0.00,197.00,VWS V14.00,2013-02-21 15:53:00,
2013-02-21 07:58:00,49.2,42.0,29.98,ENE,70,0.0,3.0,76,0.00,,---,0.00,216.00,VWS V14.00,2013-02-21 15:58:00,
2013-02-21 08:03:00,49.5,41.9,29.98,East,98,2.0,5.0,75,0.00,,---,0.00,232.00,VWS V14.00,2013-02-21 16:03:00,
2013-02-21 08:08:00,49.9,42.0,29.98,East,91,3.0,9.0,74,0.00,,---,0.00,251.00,VWS V14.00,2013-02-21 16:08:00,
2013-02-21 08:13:00,50.2,42.2,29.98,East,89,7.0,7.0,74,0.00,,---,0.00,272.00,VWS V14.00,2013-02-21 16:13:00,
2013-02-21 08:18:00,50.5,42.2,29.98,ENE,74,0.0,4.0,73,0.00,,---,0.00,295.00,VWS V14.00,2013-02-21 16:18:00,
2013-02-21 08:23:00,50.8,42.5,29.98,ENE,74,3.0,5.0,73,0.00,,---,0.00,167.00,VWS V14.00,2013-02-21 16:23:00,
2013-02-21 08:28:00,51.0,42.3,29.98,NNE,27,2.0,6.0,72,0.00,,---,0.00,318.00,VWS V14.00,2013-02-21 16:28:00,
2013-02-21 08:33:00,51.3,42.6,29.98,ENE,72,0.0,3.0,72,0.00,,---,0.00,329.00,VWS V14.00,2013-02-21 16:33:00,
2013-02-21 08:38:00,51.7,43.0,29.98,NE,37,0.0,1.0,72,0.00,,---,0.00,339.00,VWS V14.00,2013-02-21 16:38:00,
2013-02-21 08:43:00,51.9,42.8,29.98,NE,54,0.0,0.0,71,0.00,,---,0.00,359.00,VWS V14.00,2013-02-21 16:43:00,
2013-02-21 08:48:00,52.2,42.7,29.99,ENE,78,5.0,7.0,70,0.00,,---,0.00,373.00,VWS V14.00,2013-02-21 16:48:00,
2013-02-21 08:53:00,52.3,42.8,29.99,NNE,27,0.0,5.0,70,0.00,,---,0.00,388.00,VWS V14.00,2013-02-21 16:53:00,
2013-02-21 08:58:00,52.8,43.3,29.99,East,90,0.0,1.0,70,0.00,,---,0.00,401.00,VWS V14.00,2013-02-21 16:58:00,
2013-02-21 09:03:00,53.1,43.6,29.98,NE,47,0.0,4.0,70,0.00,,---,0.00,417.00,VWS V14.00,2013-02-21 17:03:00,
2013-02-21 09:08:00,53.3,43.4,29.98,ENE,71,4.0,7.0,69,0.00,,---,0.00,429.00,VWS V14.00,2013-02-21 17:08:00,
2013-02-21 09:13:00,53.6,43.7,29.98,NE,47,2.0,6.0,69,0.00,,---,0.00,439.00,VWS V14.00,2013-02-21 17:13:00,
2013-02-21 09:19:00,53.8,43.5,30.00,NE,46,1.0,2.0,68,0.00,,---,0.00,459.00,VWS V14.00,2013-02-21 17:19:00,
2013-02-21 09:24:00,54.2,43.9,30.00,NE,37,0.0,6.0,68,0.00,,---,0.00,469.00,VWS V14.00,2013-02-21 17:24:00,
2013-02-21 09:29:00,54.4,43.3,30.00,ESE,105,0.0,4.0,66,0.00,,---,0.00,487.00,VWS V14.00,2013-02-21 17:29:00,
2013-02-21 09:34:00,54.7,43.6,30.00,NNE,12,2.0,3.0,66,0.00,,---,0.00,506.00,VWS V14.00,2013-02-21 17:34:00,
2013-02-21 09:39:00,55.1,44.0,30.00,SE,135,2.0,5.0,66,0.00,,---,0.00,538.00,VWS V14.00,2013-02-21 17:39:00,
2013-02-21 09:44:00,55.4,44.2,30.00,ESE,105,0.0,11.0,66,0.00,,---,0.00,587.00,VWS V14.00,2013-02-21 17:44:00,
2013-02-21 09:49:00,55.9,44.3,30.00,East,83,1.0,3.0,65,0.00,,---,0.00,624.00,VWS V14.00,2013-02-21 17:49:00,
2013-02-21 09:54:00,56.3,44.3,30.00,NE,44,0.0,13.0,64,0.00,,---,0.00,591.00,VWS V14.00,2013-02-21 17:54:00,
2013-02-21 09:59:00,56.6,44.2,30.00,East,94,0.0,0.0,63,0.00,,---,0.00,564.00,VWS V14.00,2013-02-21 17:59:00,
2013-02-21 10:04:00,56.9,44.0,30.00,ESE,105,0.0,7.0,62,0.00,,---,0.00,571.00,VWS V14.00,2013-02-21 18:04:00,
2013-02-21 10:09:00,57.0,43.7,30.00,East,82,0.0,1.0,61,0.00,,---,0.00,580.00,VWS V14.00,2013-02-21 18:09:00,
2013-02-21 10:14:00,57.0,43.7,30.00,East,86,1.0,3.0,61,0.00,,---,0.00,584.00,VWS V14.00,2013-02-21 18:14:00,
2013-02-21 10:19:00,57.2,43.5,30.00,ENE,72,0.0,3.0,60,0.00,,---,0.00,599.00,VWS V14.00,2013-02-21 18:19:00,
2013-02-21 10:24:00,57.5,44.6,30.00,East,81,0.0,5.0,62,0.00,,---,0.00,617.00,VWS V14.00,2013-02-21 18:24:00,
2013-02-21 10:29:00,58.0,44.2,30.00,ENE,72,0.0,0.0,60,0.00,,---,0.00,621.00,VWS V14.00,2013-02-21 18:29:00,
2013-02-21 10:34:00,58.3,44.0,29.99,East,87,1.0,7.0,59,0.00,,---,0.00,619.00,VWS V14.00,2013-02-21 18:34:00,
2013-02-21 10:39:00,58.4,44.1,29.99,ESE,119,0.0,8.0,59,0.00,,---,0.00,629.00,VWS V14.00,2013-02-21 18:39:00,
2013-02-21 10:44:00,58.7,44.0,29.99,ESE,114,0.0,0.0,58,0.00,,---,0.00,640.00,VWS V14.00,2013-02-21 18:44:00,
2013-02-21 10:49:00,59.5,44.7,29.98,SE,124,3.0,5.0,58,0.00,,---,0.00,645.00,VWS V14.00,2013-02-21 18:49:00,
2013-02-21 10:54:00,59.8,44.5,29.98,ESE,117,0.0,2.0,57,0.00,,---,0.00,656.00,VWS V14.00,2013-02-21 18:54:00,
2013-02-21 10:59:00,60.1,43.9,29.98,East,91,0.0,4.0,55,0.00,,---,0.00,679.00,VWS V14.00,2013-02-21 18:59:00,
2013-02-21 11:04:00,60.4,44.2,29.98,ESE,109,1.0,5.0,55,0.00,,---,0.00,694.00,VWS V14.00,2013-02-21 19:04:00,
2013-02-21 11:09:00,60.5,43.8,29.98,ESE,120,0.0,2.0,54,0.00,,---,0.00,680.00,VWS V14.00,2013-02-21 19:09:00,
2013-02-21 11:14:00,60.5,43.8,29.98,SE,141,5.0,9.0,54,0.00,,---,0.00,698.00,VWS V14.00,2013-02-21 19:14:00,
2013-02-21 11:19:00,60.7,44.0,29.98,ESE,103,0.0,4.0,54,0.00,,---,0.00,689.00,VWS V14.00,2013-02-21 19:19:00,
2013-02-21 11:24:00,60.7,43.5,29.98,ESE,108,1.0,5.0,53,0.00,,---,0.00,691.00,VWS V14.00,2013-02-21 19:24:00,
2013-02-21 11:29:00,61.0,43.8,29.98,East,99,0.0,5.0,53,0.00,,---,0.00,680.00,VWS V14.00,2013-02-21 19:29:00,
2013-02-21 11:34:00,61.2,44.4,29.98,ESE,110,0.0,4.0,54,0.00,,---,0.00,687.00,VWS V14.00,2013-02-21 19:34:00,
2013-02-21 11:39:00,61.6,43.8,29.98,ESE,118,2.0,2.0,52,0.00,,---,0.00,687.00,VWS V14.00,2013-02-21 19:39:00,
2013-02-21 11:44:00,62.0,44.7,29.98,ENE,69,0.0,6.0,53,0.00,,---,0.00,696.00,VWS V14.00,2013-02-21 19:44:00,
2013-02-21 11:49:00,62.3,44.0,29.97,SE,130,1.0,2.0,51,0.00,,---,0.00,701.00,VWS V14.00,2013-02-21 19:49:00,
2013-02-21 11:54:00,62.4,44.0,29.97,SE,125,0.0,4.0,51,0.00,,---,0.00,705.00,VWS V14.00,2013-02-21 19:54:00,
2013-02-21 11:59:00,62.6,43.7,29.97,ESE,110,0.0,4.0,50,0.00,,---,0.00,698.00,VWS V14.00,2013-02-21 19:59:00,
2013-02-21 12:04:00,62.6,43.7,29.96,South,173,0.0,3.0,50,0.00,,---,0.00,696.00,VWS V14.00,2013-02-21 20:04:00,
2013-02-21 12:09:00,63.1,44.7,29.96,SSE,166,0.0,3.0,51,0.00,,---,0.00,701.00,VWS V14.00,2013-02-21 20:09:00,
2013-02-21 12:14:00,63.2,44.8,29.96,ESE,111,0.0,1.0,51,0.00,,---,0.00,663.00,VWS V14.00,2013-02-21 20:14:00,
2013-02-21 12:19:00,62.9,44.5,29.96,ESE,107,1.0,3.0,51,0.00,,---,0.00,707.00,VWS V14.00,2013-02-21 20:19:00,
2013-02-21 12:24:00,63.4,44.5,29.96,East,86,3.0,4.0,50,0.00,,---,0.00,708.00,VWS V14.00,2013-02-21 20:24:00,
2013-02-21 12:29:00,63.2,43.7,29.96,South,180,0.0,1.0,49,0.00,,---,0.00,717.00,VWS V14.00,2013-02-21 20:29:00,
2013-02-21 12:34:00,62.6,43.7,29.96,SSW,193,0.0,1.0,50,0.00,,---,0.00,761.00,VWS V14.00,2013-02-21 20:34:00,
2013-02-21 12:39:00,62.9,44.5,29.96,ESE,108,3.0,3.0,51,0.00,,---,0.00,243.00,VWS V14.00,2013-02-21 20:39:00,
2013-02-21 12:44:00,62.3,42.9,29.96,SSW,196,0.0,5.0,49,0.00,,---,0.00,243.00,VWS V14.00,2013-02-21 20:44:00,
2013-02-21 12:49:00,60.7,43.0,29.95,SSW,201,3.0,6.0,52,0.00,,---,0.00,803.00,VWS V14.00,2013-02-21 20:49:00,
2013-02-21 12:54:00,59.0,42.4,29.95,South,182,0.0,7.0,54,0.00,,---,0.00,823.00,VWS V14.00,2013-02-21 20:54:00,
2013-02-21 12:59:00,58.1,43.0,29.95,WSW,238,0.0,0.0,57,0.00,,---,0.00,188.00,VWS V14.00,2013-02-21 20:59:00,
2013-02-21 13:04:00,58.1,42.5,29.95,South,191,0.0,0.0,56,0.00,,---,0.00,221.00,VWS V14.00,2013-02-21 21:04:00,
2013-02-21 13:09:00,57.2,42.1,29.95,SSW,197,0.0,2.0,57,0.00,,---,0.00,185.00,VWS V14.00,2013-02-21 21:09:00,
2013-02-21 13:14:00,56.6,42.5,29.95,WSW,242,0.0,3.0,59,0.00,,---,0.00,176.00,VWS V14.00,2013-02-21 21:14:00,
2013-02-21 13:19:00,55.9,42.2,29.95,South,191,0.0,6.0,60,0.00,,---,0.00,211.00,VWS V14.00,2013-02-21 21:19:00,
2013-02-21 13:24:00,55.6,42.8,29.95,WSW,256,0.0,2.0,62,0.00,,---,0.00,190.00,VWS V14.00,2013-02-21 21:24:00,
2013-02-21 13:29:00,55.9,43.1,29.95,SSW,211,4.0,5.0,62,0.00,,---,0.00,712.00,VWS V14.00,2013-02-21 21:29:00,
2013-02-21 13:34:00,56.7,43.8,29.95,West,263,11.0,11.0,62,0.00,,---,0.00,737.00,VWS V14.00,2013-02-21 21:34:00,
2013-02-21 13:39:00,57.0,44.5,29.95,SW,236,2.0,6.0,63,0.00,,---,0.00,714.00,VWS V14.00,2013-02-21 21:39:00,
2013-02-21 13:44:00,57.3,44.8,29.95,SSE,160,0.0,4.0,63,0.00,,---,0.00,728.00,VWS V14.00,2013-02-21 21:44:00,
2013-02-21 13:49:00,57.3,44.4,29.95,West,259,3.0,9.0,62,0.00,,---,0.00,735.00,VWS V14.00,2013-02-21 21:49:00,
2013-02-21 13:54:00,57.5,44.6,29.95,WSW,255,3.0,9.0,62,0.00,,---,0.00,243.00,VWS V14.00,2013-02-21 21:54:00,
2013-02-21 13:59:00,56.9,43.6,29.95,West,263,6.0,9.0,61,0.00,,---,0.00,174.00,VWS V14.00,2013-02-21 21:59:00,
2013-02-21 14:04:00,55.9,43.5,29.95,West,260,2.0,6.0,63,0.00,,---,0.00,114.00,VWS V14.00,2013-02-21 22:04:00,
2013-02-21 14:09:00,55.0,43.1,29.95,West,278,2.0,6.0,64,0.00,,---,0.00,90.00,VWS V14.00,2013-02-21 22:09:00,
2013-02-21 14:14:00,54.8,43.3,29.95,WNW,300,0.0,7.0,65,0.00,,---,0.00,100.00,VWS V14.00,2013-02-21 22:14:00,
2013-02-21 14:19:00,54.7,43.6,29.96,West,268,0.0,0.0,66,0.00,,---,0.00,139.00,VWS V14.00,2013-02-21 22:19:00,
2013-02-21 14:24:00,54.8,43.3,29.96,West,277,2.0,2.0,65,0.00,,---,0.00,178.00,VWS V14.00,2013-02-21 22:24:00,
2013-02-21 14:30:00,54.7,43.6,29.96,WNW,282,3.0,7.0,66,0.00,,---,0.00,193.00,VWS V14.00,2013-02-21 22:30:00,
2013-02-21 14:35:00,55.0,44.3,29.95,West,272,1.0,6.0,67,0.00,,---,0.00,591.00,VWS V14.00,2013-02-21 22:35:00,
2013-02-21 14:40:00,55.3,44.2,29.95,WNW,283,2.0,4.0,66,0.00,,---,0.00,522.00,VWS V14.00,2013-02-21 22:40:00,
2013-02-21 14:45:00,56.3,44.7,29.95,West,264,4.0,6.0,65,0.00,,---,0.00,501.00,VWS V14.00,2013-02-21 22:45:00,
2013-02-21 14:50:00,56.3,44.3,29.95,West,274,3.0,6.0,64,0.00,,---,0.00,466.00,VWS V14.00,2013-02-21 22:50:00,
2013-02-21 14:55:00,56.2,44.6,29.95,West,275,5.0,6.0,65,0.00,,---,0.00,464.00,VWS V14.00,2013-02-21 22:55:00,
2013-02-21 15:00:00,56.5,44.5,29.95,WSW,245,5.0,5.0,64,0.00,,---,0.00,438.00,VWS V14.00,2013-02-21 23:00:00,
2013-02-21 15:05:00,57.0,45.0,29.95,West,281,7.0,7.0,64,0.00,,---,0.00,420.00,VWS V14.00,2013-02-21 23:05:00,
2013-02-21 15:10:00,56.6,44.6,29.95,West,268,3.0,9.0,64,0.00,,---,0.00,417.00,VWS V14.00,2013-02-21 23:10:00,
2013-02-21 15:15:00,56.3,44.3,29.95,West,259,1.0,9.0,64,0.00,,---,0.00,403.00,VWS V14.00,2013-02-21 23:15:00,
2013-02-21 15:20:00,56.2,43.8,29.95,WNW,282,4.0,8.0,63,0.00,,---,0.00,387.00,VWS V14.00,2013-02-21 23:20:00,
2013-02-21 15:25:00,56.0,44.0,29.95,WSW,251,3.0,10.0,64,0.00,,---,0.00,374.00,VWS V14.00,2013-02-21 23:25:00,
2013-02-21 15:30:00,56.0,43.2,29.95,West,278,6.0,10.0,62,0.00,,---,0.00,359.00,VWS V14.00,2013-02-21 23:30:00,
2013-02-21 15:35:00,55.7,43.3,29.95,West,259,2.0,13.0,63,0.00,,---,0.00,343.00,VWS V14.00,2013-02-21 23:35:00,
2013-02-21 15:40:00,55.4,43.4,29.95,West,270,4.0,11.0,64,0.00,,---,0.00,330.00,VWS V14.00,2013-02-21 23:40:00,
2013-02-21 15:45:00,55.4,43.0,29.95,WSW,241,3.0,10.0,63,0.00,,---,0.00,315.00,VWS V14.00,2013-02-21 23:45:00,
2013-02-21 15:50:00,55.6,41.5,29.95,West,268,5.0,6.0,59,0.00,,---,0.00,301.00,VWS V14.00,2013-02-21 23:50:00,
2013-02-21 15:55:00,55.6,42.0,29.95,WSW,241,1.0,6.0,60,0.00,,---,0.00,287.00,VWS V14.00,2013-02-21 23:55:00,
2013-02-21 16:00:00,55.4,42.6,29.95,West,266,7.0,14.0,62,0.00,,---,0.00,274.00,VWS V14.00,2013-02-22 00:00:00,
2013-02-21 16:05:00,55.1,43.6,29.95,West,268,10.0,17.0,65,0.00,,---,0.00,251.00,VWS V14.00,2013-02-22 00:05:00,
2013-02-21 16:10:00,54.4,42.5,29.95,WSW,257,16.0,18.0,64,0.00,,---,0.00,239.00,VWS V14.00,2013-02-22 00:10:00,
2013-02-21 16:15:00,54.4,42.9,29.95,WSW,253,3.0,15.0,65,0.00,,---,0.00,223.00,VWS V14.00,2013-02-22 00:15:00,
2013-02-21 16:20:00,54.4,41.7,29.95,West,280,3.0,7.0,62,0.00,,---,0.00,209.00,VWS V14.00,2013-02-22 00:20:00,
2013-02-21 16:25:00,54.7,42.4,29.95,West,275,5.0,10.0,63,0.00,,---,0.00,193.00,VWS V14.00,2013-02-22 00:25:00,
2013-02-21 16:30:00,54.7,40.7,29.95,West,272,5.0,15.0,59,0.00,,---,0.00,181.00,VWS V14.00,2013-02-22 00:30:00,
2013-02-21 16:35:00,54.7,40.2,29.95,West,260,2.0,9.0,58,0.00,,---,0.00,165.00,VWS V14.00,2013-02-22 00:35:00,
2013-02-21 16:40:00,54.7,39.8,29.95,NW,313,10.0,15.0,57,0.00,,---,0.00,148.00,VWS V14.00,2013-02-22 00:40:00,
2013-02-21 16:45:00,54.7,40.2,29.95,West,267,15.0,17.0,58,0.00,,---,0.00,132.00,VWS V14.00,2013-02-22 00:45:00,
2013-02-21 16:50:00,54.5,40.5,29.95,West,272,7.0,18.0,59,0.00,,---,0.00,114.00,VWS V14.00,2013-02-22 00:50:00,
2013-02-21 16:55:00,54.5,40.5,29.95,WNW,299,5.0,11.0,59,0.00,,---,0.00,98.00,VWS V14.00,2013-02-22 00:55:00,
2013-02-21 17:00:00,54.4,39.5,29.95,West,277,2.0,13.0,57,0.00,,---,0.00,83.00,VWS V14.00,2013-02-22 01:00:00,
2013-02-21 17:05:00,54.4,40.0,29.95,West,269,9.0,13.0,58,0.00,,---,0.00,67.00,VWS V14.00,2013-02-22 01:05:00,
2013-02-21 17:10:00,54.4,41.7,29.95,West,261,8.0,16.0,62,0.00,,---,0.00,54.00,VWS V14.00,2013-02-22 01:10:00,
2013-02-21 17:15:00,54.2,42.3,29.95,West,272,11.0,14.0,64,0.00,,---,0.00,42.00,VWS V14.00,2013-02-22 01:15:00,
2013-02-21 17:20:00,54.1,42.6,29.96,West,278,5.0,7.0,65,0.00,,---,0.00,33.00,VWS V14.00,2013-02-22 01:20:00,
2013-02-21 17:25:00,54.2,43.9,29.96,West,263,3.0,9.0,68,0.00,,---,0.00,23.00,VWS V14.00,2013-02-22 01:25:00,
2013-02-21 17:30:00,53.9,44.0,29.96,WNW,286,5.0,7.0,69,0.00,,---,0.00,16.00,VWS V14.00,2013-02-22 01:30:00,
2013-02-21 17:35:00,53.6,44.4,29.96,West,271,2.0,11.0,71,0.00,,---,0.00,12.00,VWS V14.00,2013-02-22 01:35:00,
2013-02-21 17:40:00,53.5,44.3,29.96,West,274,4.0,9.0,71,0.00,,---,0.00,9.00,VWS V14.00,2013-02-22 01:40:00,
2013-02-21 17:45:00,53.3,44.2,29.96,WNW,284,0.0,1.0,71,0.00,,---,0.00,5.00,VWS V14.00,2013-02-22 01:45:00,
2013-02-21 17:50:00,53.1,43.6,29.97,WNW,299,0.0,0.0,70,0.00,,---,0.00,0.00,VWS V14.00,2013-02-22 01:50:00,
2013-02-21 17:55:00,52.9,43.0,29.97,WNW,298,0.0,0.0,69,0.00,,---,0.00,0.00,VWS V14.00,2013-02-22 01:55:00,
2013-02-21 18:00:00,52.5,40.3,29.97,WNW,295,0.0,0.0,63,0.00,,---,0.00,0.00,VWS V14.00,2013-02-22 02:00:00,
2013-02-21 18:05:00,52.3,38.8,29.98,WNW,294,0.0,0.0,60,0.00,,---,0.00,0.00,VWS V14.00,2013-02-22 02:05:00,
2013-02-21 18:10:00,52.3,38.4,29.98,WNW,297,0.0,0.0,59,0.00,,---,0.00,0.00,VWS V14.00,2013-02-22 02:10:00,
2013-02-21 18:15:00,52.3,37.5,29.98,WNW,294,0.0,0.0,57,0.00,,---,0.00,0.00,VWS V14.00,2013-02-22 02:15:00,
2013-02-21 18:20:00,52.5,36.8,29.98,WNW,288,0.0,0.0,55,0.00,,---,0.00,0.00,VWS V14.00,2013-02-22 02:20:00,
2013-02-21 18:25:00,52.5,36.3,29.98,WNW,288,0.0,0.0,54,0.00,,---,0.00,0.00,VWS V14.00,2013-02-22 02:25:00,
2013-02-21 18:30:00,52.5,36.3,29.98,WNW,288,0.0,0.0,54,0.00,,---,0.00,0.00,VWS V14.00,2013-02-22 02:30:00,
2013-02-21 18:35:00,52.3,36.2,29.98,WNW,288,0.0,0.0,54,0.00,,---,0.00,0.00,VWS V14.00,2013-02-22 02:35:00,
2013-02-21 18:40:00,52.5,34.9,29.98,West,280,1.0,2.0,51,0.00,,---,0.00,0.00,VWS V14.00,2013-02-22 02:40:00,
2013-02-21 18:45:00,52.9,35.3,29.98,WNW,282,0.0,0.0,51,0.00,,---,0.00,0.00,VWS V14.00,2013-02-22 02:45:00,
2013-02-21 18:51:00,52.8,35.7,29.99,WNW,282,0.0,0.0,52,0.00,,---,0.00,0.00,VWS V14.00,2013-02-22 02:51:00,
2013-02-21 18:56:00,52.5,35.9,29.99,WNW,282,0.0,0.0,53,0.00,,---,0.00,0.00,VWS V14.00,2013-02-22 02:56:00,
2013-02-21 19:01:00,52.2,36.1,29.99,WNW,282,0.0,0.0,54,0.00,,---,0.00,0.00,VWS V14.00,2013-02-22 03:01:00,
2013-02-21 19:06:00,51.7,35.6,29.99,WNW,282,0.0,0.0,54,0.00,,---,0.00,0.00,VWS V14.00,2013-02-22 03:06:00,
2013-02-21 19:11:00,51.3,35.7,29.99,WNW,282,0.0,0.0,55,0.00,,---,0.00,0.00,VWS V14.00,2013-02-22 03:11:00,
2013-02-21 19:16:00,50.7,36.0,29.99,WNW,282,0.0,0.0,57,0.00,,---,0.00,0.00,VWS V14.00,2013-02-22 03:16:00,
2013-02-21 19:21:00,49.8,36.1,30.00,WNW,282,0.0,0.0,59,0.00,,---,0.00,0.00,VWS V14.00,2013-02-22 03:21:00,
2013-02-21 19:26:00,49.4,35.7,30.00,WNW,282,0.0,0.0,59,0.00,,---,0.00,0.00,VWS V14.00,2013-02-22 03:26:00,
2013-02-21 19:31:00,49.1,35.8,30.01,WNW,282,0.0,0.0,60,0.00,,---,0.00,0.00,VWS V14.00,2013-02-22 03:31:00,
2013-02-21 19:36:00,49.1,35.8,30.01,WNW,286,0.0,0.0,60,0.00,,---,0.00,0.00,VWS V14.00,2013-02-22 03:36:00,
2013-02-21 19:41:00,49.4,35.7,30.01,NNW,334,0.0,0.0,59,0.00,,---,0.00,0.00,VWS V14.00,2013-02-22 03:41:00,
2013-02-21 19:46:00,49.9,34.8,30.01,West,269,0.0,0.0,56,0.00,,---,0.00,0.00,VWS V14.00,2013-02-22 03:46:00,
2013-02-21 19:51:00,50.2,35.1,30.01,West,269,0.0,0.0,56,0.00,,---,0.00,0.00,VWS V14.00,2013-02-22 03:51:00,
2013-02-21 19:56:00,50.4,35.8,30.01,West,269,0.0,0.0,57,0.00,,---,0.00,0.00,VWS V14.00,2013-02-22 03:56:00,
2013-02-21 20:01:00,50.1,35.5,30.01,West,275,0.0,0.0,57,0.00,,---,0.00,0.00,VWS V14.00,2013-02-22 04:01:00,
2013-02-21 20:06:00,49.9,35.7,30.01,West,276,0.0,0.0,58,0.00,,---,0.00,0.00,VWS V14.00,2013-02-22 04:06:00,
2013-02-21 20:11:00,49.8,35.6,30.01,West,276,0.0,0.0,58,0.00,,---,0.00,0.00,VWS V14.00,2013-02-22 04:11:00,
2013-02-21 20:16:00,49.5,35.8,30.01,West,276,0.0,0.0,59,0.00,,---,0.00,0.00,VWS V14.00,2013-02-22 04:16:00,
2013-02-21 20:21:00,49.4,35.7,30.01,West,276,0.0,0.0,59,0.00,,---,0.00,0.00,VWS V14.00,2013-02-22 04:21:00,
2013-02-21 20:26:00,49.1,35.8,30.01,West,276,0.0,0.0,60,0.00,,---,0.00,0.00,VWS V14.00,2013-02-22 04:26:00,
2013-02-21 20:31:00,48.6,35.8,30.02,West,276,0.0,0.0,61,0.00,,---,0.00,0.00,VWS V14.00,2013-02-22 04:31:00,
2013-02-21 20:36:00,48.6,35.8,30.02,West,276,0.0,0.0,61,0.00,,---,0.00,0.00,VWS V14.00,2013-02-22 04:36:00,
2013-02-21 20:41:00,48.9,35.6,30.02,West,276,0.0,0.0,60,0.00,,---,0.00,0.00,VWS V14.00,2013-02-22 04:41:00,
2013-02-21 20:46:00,49.2,36.3,30.02,WNW,298,0.0,0.0,61,0.00,,---,0.00,0.00,VWS V14.00,2013-02-22 04:46:00,
2013-02-21 20:51:00,50.2,38.9,30.02,SW,234,0.0,4.0,65,0.00,,---,0.00,0.00,VWS V14.00,2013-02-22 04:51:00,
2013-02-21 20:56:00,51.0,40.8,30.02,West,259,0.0,0.0,68,0.00,,---,0.00,0.00,VWS V14.00,2013-02-22 04:56:00,
2013-02-21 21:00:00,51.0,40.4,30.02,West,259,0.0,0.0,67,0.00,,---,0.00,0.00,VWS V14.00,2013-02-22 05:00:00,
2013-02-21 21:05:00,50.8,40.6,30.02,West,261,0.0,0.0,68,0.00,,---,0.00,0.00,VWS V14.00,2013-02-22 05:05:00,
2013-02-21 21:10:00,50.8,41.4,30.02,West,261,0.0,0.0,70,0.00,,---,0.00,0.00,VWS V14.00,2013-02-22 05:10:00,
2013-02-21 21:15:00,50.5,40.7,30.02,West,261,0.0,0.0,69,0.00,,---,0.00,0.00,VWS V14.00,2013-02-22 05:15:00,
2013-02-21 21:20:00,50.2,40.4,30.02,West,262,0.0,0.0,69,0.00,,---,0.00,0.00,VWS V14.00,2013-02-22 05:20:00,
2013-02-21 21:25:00,50.1,40.3,30.02,West,262,0.0,0.0,69,0.00,,---,0.00,0.00,VWS V14.00,2013-02-22 05:25:00,
2013-02-21 21:30:00,49.6,39.5,30.02,West,262,0.0,0.0,68,0.00,,---,0.00,0.00,VWS V14.00,2013-02-22 05:30:00,
2013-02-21 21:35:00,49.4,38.5,30.02,West,262,0.0,0.0,66,0.00,,---,0.00,0.00,VWS V14.00,2013-02-22 05:35:00,
2013-02-21 21:40:00,48.9,37.7,30.02,West,262,0.0,0.0,65,0.00,,---,0.00,0.00,VWS V14.00,2013-02-22 05:40:00,
2013-02-21 21:45:00,48.6,37.0,30.02,West,262,0.0,0.0,64,0.00,,---,0.00,0.00,VWS V14.00,2013-02-22 05:45:00,
2013-02-21 21:50:00,48.2,35.8,30.03,SW,234,0.0,0.0,62,0.00,,---,0.00,0.00,VWS V14.00,2013-02-22 05:50:00,
2013-02-21 21:55:00,48.5,35.3,30.03,SW,234,0.0,0.0,60,0.00,,---,0.00,0.00,VWS V14.00,2013-02-22 05:55:00,
2013-02-21 22:00:00,48.3,34.7,30.03,SW,235,0.0,0.0,59,0.00,,---,0.00,0.00,VWS V14.00,2013-02-22 06:00:00,
2013-02-21 22:05:00,48.3,34.2,30.03,SSW,209,0.0,0.0,58,0.00,,---,0.00,0.00,VWS V14.00,2013-02-22 06:05:00,
2013-02-21 22:10:00,48.5,33.5,30.03,SW,218,0.0,0.0,56,0.00,,---,0.00,0.00,VWS V14.00,2013-02-22 06:10:00,
2013-02-21 22:15:00,49.2,32.8,30.03,West,279,0.0,1.0,53,0.00,,---,0.00,0.00,VWS V14.00,2013-02-22 06:15:00,
2013-02-21 22:20:00,50.1,33.2,30.03,WSW,245,0.0,5.0,52,0.00,,---,0.00,0.00,VWS V14.00,2013-02-22 06:20:00,
2013-02-21 22:25:00,51.3,32.3,30.03,SW,230,2.0,5.0,48,0.00,,---,0.00,0.00,VWS V14.00,2013-02-22 06:25:00,
2013-02-21 22:30:00,52.0,31.9,30.03,WSW,237,6.0,6.0,46,0.00,,---,0.00,0.00,VWS V14.00,2013-02-22 06:30:00,
2013-02-21 22:35:00,52.5,32.9,30.03,West,260,3.0,4.0,47,0.00,,---,0.00,0.00,VWS V14.00,2013-02-22 06:35:00,
2013-02-21 22:40:00,52.5,33.9,30.03,WSW,256,0.0,2.0,49,0.00,,---,0.00,0.00,VWS V14.00,2013-02-22 06:40:00,
2013-02-21 22:45:00,52.2,34.1,30.03,WSW,256,0.0,0.0,50,0.00,,---,0.00,0.00,VWS V14.00,2013-02-22 06:45:00,
2013-02-21 22:51:00,51.4,33.4,30.03,WSW,256,2.0,3.0,50,0.00,,---,0.00,0.00,VWS V14.00,2013-02-22 06:51:00,
2013-02-21 22:56:00,51.1,33.1,30.03,WSW,257,0.0,0.0,50,0.00,,---,0.00,0.00,VWS V14.00,2013-02-22 06:56:00,
2013-02-21 23:01:00,50.7,32.8,30.03,WSW,257,0.0,0.0,50,0.00,,---,0.00,0.00,VWS V14.00,2013-02-22 07:01:00,
2013-02-21 23:06:00,49.9,32.0,30.03,WSW,257,0.0,0.0,50,0.00,,---,0.00,0.00,VWS V14.00,2013-02-22 07:06:00,
2013-02-21 23:11:00,50.4,30.4,30.03,West,259,0.0,2.0,46,0.00,,---,0.00,0.00,VWS V14.00,2013-02-22 07:11:00,
2013-02-21 23:16:00,51.4,30.2,30.03,West,270,0.0,1.0,44,0.00,,---,0.00,0.00,VWS V14.00,2013-02-22 07:16:00,
2013-02-21 23:21:00,52.3,29.3,30.03,West,280,0.0,0.0,41,0.00,,---,0.00,0.00,VWS V14.00,2013-02-22 07:21:00,
2013-02-21 23:26:00,52.3,30.5,30.03,West,280,0.0,0.0,43,0.00,,---,0.00,0.00,VWS V14.00,2013-02-22 07:26:00,
2013-02-21 23:31:00,51.7,31.6,30.03,West,278,0.0,0.0,46,0.00,,---,0.00,0.00,VWS V14.00,2013-02-22 07:31:00,
2013-02-21 23:36:00,51.1,32.6,30.03,West,278,0.0,0.0,49,0.00,,---,0.00,0.00,VWS V14.00,2013-02-22 07:36:00,
2013-02-21 23:41:00,50.4,32.5,30.03,West,278,0.0,0.0,50,0.00,,---,0.00,0.00,VWS V14.00,2013-02-22 07:41:00,
2013-02-21 23:46:00,49.9,32.0,30.03,West,278,0.0,0.0,50,0.00,,---,0.00,0.00,VWS V14.00,2013-02-22 07:46:00,
2013-02-21 23:51:00,49.5,31.6,30.03,West,278,0.0,0.0,50,0.00,,---,0.00,0.00,VWS V14.00,2013-02-22 07:51:00,
2013-02-21 23:56:00,49.1,31.8,30.03,West,278,0.0,0.0,51,0.00,,---,0.00,0.00,VWS V14.00,2013-02-22 07:56:00,